Date String (YYYY-MM-DD hh:mm:ss) UTC,Instrument flags,absolute air pressure of the measurement (hPa),sample flow rate (lpm),inlet stack bypass flow (lpm),air temperature of the measurement (°C),ambient temperature measured by the external sensor (°C),aerosol sample conditioner tube jacket temperature (°C),OPC LED temperature (°C),internal box temperature (°C),relative humidity of the measurement (%),span deviation,mass concentration of particles derived from Lorenz-Mie calculation of OPC scattering (μg/m³),mass concentration of particles derived from Lorenz-Mie calculation of OPC scattering (μg/m³),mass concentration of particles derived from Lorenz-Mie calculation of OPC scattering (μg/m³)
DateTimeUTC,F1_M11,P_M11,Q1_M11,Q2_M11,T1_M11,T2_M11,T3_M11,T4_M11,T5_M11,U1_M11,ZSPAN_M11,X0_M11,X2_M11,X1_M11
2024-04-18 17:00:00,SystemResetWarning,0835.0,5.00,000.00,020.6,020.0,000.0,029.2,022.5,019.7,0000.0,0007.38,0005.30,0005.08
2024-04-18 17:01:00,SystemResetWarning,0835.0,5.00,000.00,020.6,020.0,000.0,029.2,022.5,019.8,0000.0,0007.33,0005.26,0005.06
2024-04-18 17:02:00,SystemResetWarning,0835.0,4.99,000.00,020.6,020.0,000.0,029.2,022.5,019.9,0000.0,0007.40,0005.26,0005.05
2024-04-18 17:03:00,SystemResetWarning,0835.0,4.99,000.00,020.6,020.0,000.0,029.2,022.5,020.0,0000.0,0007.38,0005.24,0005.03
2024-04-18 17:04:00,SystemResetWarning,0835.0,5.01,000.00,020.6,020.0,000.0,029.2,022.5,020.1,0000.0,0007.38,0005.22,0005.01
2024-04-18 17:05:00,SystemResetWarning,0834.9,5.01,000.00,020.6,020.0,000.0,029.2,022.5,020.0,0000.0,0007.29,0005.17,0004.98
2024-04-18 17:06:00,SystemResetWarning,0834.9,5.00,000.00,020.6,020.0,000.0,029.2,022.5,020.1,0000.0,0007.21,0005.14,0004.97
2024-04-18 17:07:00,SystemResetWarning,0835.0,5.01,000.00,020.6,020.0,000.0,029.2,022.5,020.0,0000.0,0007.27,0005.14,0004.97
2024-04-18 17:08:00,SystemResetWarning,0834.9,5.00,000.00,020.6,020.0,000.0,029.2,022.5,020.0,0000.0,0007.35,0005.14,0004.95
2024-04-18 17:09:00,SystemResetWarning,0834.9,5.00,000.00,020.6,020.0,000.0,029.2,022.5,020.2,0000.0,0007.39,0005.15,0004.95
2024-04-18 17:10:00,SystemResetWarning,0834.9,4.99,000.00,020.6,020.0,000.0,029.2,022.5,020.2,0000.0,0007.38,0005.16,0004.95
2024-04-18 17:11:00,SystemResetWarning,0834.9,4.99,000.00,020.6,020.0,000.0,029.2,022.5,020.2,0000.0,0007.39,0005.17,0004.96
2024-04-18 17:12:00,SystemResetWarning,0834.9,5.00,000.00,020.7,020.0,000.0,029.2,022.5,020.2,0000.0,0007.38,0005.19,0004.98
2024-04-18 17:13:00,SystemResetWarning,0835.0,4.99,000.00,020.7,020.0,000.0,029.2,022.5,020.3,0000.0,0007.34,0005.21,0005.00
2024-04-18 17:14:00,SystemResetWarning,0834.9,5.01,000.00,020.7,020.1,000.0,029.2,022.5,020.3,0000.0,0007.34,0005.23,0005.02
2024-04-18 17:15:00,SystemResetWarning,0834.8,5.00,000.00,020.7,020.1,000.0,029.2,022.5,020.3,0000.0,0007.36,0005.25,0005.05
2024-04-18 17:16:00,SystemResetWarning,0834.7,4.98,000.00,020.7,020.1,000.0,029.2,022.5,020.4,0000.0,0007.43,0005.28,0005.07
2024-04-18 17:17:00,SystemResetWarning,0834.7,5.00,000.00,020.7,020.1,000.0,029.2,022.5,020.5,0000.0,0007.54,0005.30,0005.06
2024-04-18 17:18:00,SystemResetWarning,0834.7,5.01,000.00,020.7,020.1,000.0,029.2,022.5,020.2,0000.0,0007.59,0005.33,0005.06
2024-04-18 17:19:00,SystemResetWarning,0834.7,5.00,000.00,020.7,020.1,000.0,029.2,022.5,020.0,0000.0,0007.52,0005.31,0005.05
2024-04-18 17:20:00,SystemResetWarning,0834.9,4.99,000.00,020.7,020.1,000.0,029.2,022.5,020.1,0000.0,0007.45,0005.29,0005.06
2024-04-18 17:21:00,SystemResetWarning,0834.8,4.99,000.00,020.7,020.1,000.0,029.2,022.6,020.1,0000.0,0007.46,0005.30,0005.06
2024-04-18 17:22:00,SystemResetWarning,0835.1,4.99,000.00,020.7,020.1,000.0,029.2,022.6,020.0,0000.0,0007.45,0005.31,0005.08
2024-04-18 17:23:00,SystemResetWarning,0835.0,4.99,000.00,020.7,020.1,000.0,029.2,022.5,020.1,0000.0,0007.47,0005.32,0005.09
2024-04-18 17:24:00,SystemResetWarning,0834.7,5.01,000.00,020.7,020.1,000.0,029.2,022.6,020.0,0000.0,0007.49,0005.33,0005.09
2024-04-18 17:25:00,SystemResetWarning,0834.8,5.00,000.00,020.7,020.1,000.0,029.2,022.6,019.9,0000.0,0007.51,0005.33,0005.10
2024-04-18 17:26:00,SystemResetWarning,0834.8,5.01,000.00,020.7,020.1,000.0,029.2,022.6,020.0,0000.0,0007.47,0005.34,0005.11
2024-04-18 17:27:00,SystemResetWarning,0834.7,5.00,000.00,020.7,020.1,000.0,029.2,022.6,020.1,0000.0,0007.45,0005.35,0005.12
2024-04-18 17:28:00,SystemResetWarning,0834.8,5.00,000.00,020.7,020.1,000.0,029.2,022.6,020.1,0000.0,0007.34,0005.34,0005.13
2024-04-18 17:29:00,SystemResetWarning,0835.1,5.00,000.00,020.7,020.1,000.0,029.2,022.6,020.0,0000.0,0007.25,0005.33,0005.14
2024-04-18 17:30:00,SystemResetWarning,0835.2,5.00,000.00,020.7,020.1,000.0,029.2,022.6,020.1,0000.0,0007.51,0005.34,0005.16
2024-04-18 17:31:00,SystemResetWarning,0835.1,5.00,000.00,020.7,020.1,000.0,029.2,022.6,020.2,0000.0,0008.10,0005.36,0005.16
2024-04-18 17:32:00,SystemResetWarning,0835.1,5.00,000.00,020.7,020.1,000.0,029.2,022.6,020.3,0000.0,0008.08,0005.35,0005.16
2024-04-18 17:33:00,SystemResetWarning,0834.8,5.00,000.00,020.7,020.1,000.0,029.2,022.6,020.3,0000.0,0008.08,0005.34,0005.16
2024-04-18 17:34:00,SystemResetWarning,0834.7,5.00,000.00,020.7,020.1,000.0,029.2,022.6,020.1,0000.0,0008.13,0005.32,0005.15
2024-04-18 17:35:00,SystemResetWarning,0834.6,5.00,000.00,020.7,020.1,000.0,029.2,022.6,020.0,0000.0,0008.20,0005.31,0005.14
2024-04-18 17:36:00,SystemResetWarning,0834.7,5.00,000.00,020.7,020.1,000.0,029.2,022.6,019.8,0000.0,0008.25,0005.33,0005.13
2024-04-18 17:37:00,SystemResetWarning,0835.2,5.00,000.00,020.7,020.1,000.0,029.2,022.6,019.9,0000.0,0008.33,0005.35,0005.13
2024-04-18 17:38:00,SystemResetWarning,0834.7,4.99,000.00,020.7,020.1,000.0,029.2,022.6,019.9,0000.0,0008.33,0005.35,0005.11
2024-04-18 17:39:00,SystemResetWarning,0835.1,5.00,000.00,020.7,020.1,000.0,029.2,022.6,020.0,0000.0,0008.35,0005.35,0005.10
2024-04-18 17:40:00,SystemResetWarning,0835.1,5.00,000.00,020.7,020.1,000.0,029.2,022.6,020.1,0000.0,0008.38,0005.33,0005.09
2024-04-18 17:41:00,SystemResetWarning,0835.1,5.00,000.00,020.7,020.1,000.0,029.2,022.6,020.3,0000.0,0008.23,0005.34,0005.09
2024-04-18 17:42:00,SystemResetWarning,0835.1,5.00,000.00,020.7,020.1,000.0,029.2,022.6,020.4,0000.0,0007.58,0005.34,0005.09
2024-04-18 17:43:00,SystemResetWarning,0835.1,5.01,000.00,020.7,020.1,000.0,029.2,022.5,020.4,0000.0,0007.60,0005.35,0005.10
2024-04-18 17:44:00,SystemResetWarning,0835.1,5.02,000.00,020.7,020.0,000.0,029.2,022.5,020.4,0000.0,0007.63,0005.38,0005.10
2024-04-18 17:45:00,SystemResetWarning,0834.8,4.99,000.00,020.7,020.0,000.0,029.2,022.5,020.4,0000.0,0007.57,0005.38,0005.11
2024-04-18 17:46:00,SystemResetWarning,0835.1,4.99,000.00,020.7,020.0,000.0,029.2,022.5,020.6,0000.0,0007.44,0005.39,0005.12
2024-04-18 17:47:00,SystemResetWarning,0835.1,5.01,000.00,020.7,020.0,000.0,029.2,022.5,020.6,0000.0,0007.44,0005.42,0005.16
2024-04-18 17:48:00,SystemResetWarning,0835.0,5.01,000.00,020.7,020.0,000.0,029.2,022.5,020.7,0000.0,0007.40,0005.43,0005.19
2024-04-18 17:49:00,SystemResetWarning,0834.8,5.01,000.00,020.7,020.0,000.0,029.2,022.5,020.9,0000.0,0007.39,0005.47,0005.25
2024-04-18 17:50:00,SystemResetWarning,0834.7,5.01,000.00,020.7,020.0,000.0,029.2,022.5,021.0,0000.0,0007.45,0005.53,0005.31
2024-04-18 17:51:00,SystemResetWarning,0834.9,4.99,000.00,020.7,020.0,000.0,029.2,022.5,021.0,0000.0,0007.49,0005.60,0005.38
2024-04-18 17:52:00,SystemResetWarning,0834.8,4.99,000.00,020.7,020.0,000.0,029.2,022.5,020.9,0000.0,0007.53,0005.68,0005.45
2024-04-18 17:53:00,SystemResetWarning,0834.6,5.01,000.00,020.7,020.0,000.0,029.2,022.5,021.0,0000.0,0007.59,0005.74,0005.51
2024-04-18 17:54:00,SystemResetWarning,0834.5,5.01,000.00,020.7,020.0,000.0,029.2,022.5,021.3,0000.0,0007.66,0005.80,0005.58
2024-04-18 17:55:00,SystemResetWarning,0834.5,4.99,000.00,020.7,020.0,000.0,029.2,022.5,022.0,0000.0,0007.76,0005.86,0005.63
2024-04-18 17:56:00,SystemResetWarning,0834.4,4.99,000.00,020.6,020.0,000.0,029.2,022.5,021.4,0000.0,0007.89,0005.93,0005.67
2024-04-18 17:57:00,SystemResetWarning,0834.4,5.00,000.00,020.6,020.0,000.0,029.2,022.5,021.0,0000.0,0007.92,0005.97,0005.71
2024-04-18 17:58:00,SystemResetWarning,0834.4,5.00,000.00,020.6,020.0,000.0,029.2,022.5,020.5,0000.0,0007.90,0005.95,0005.71
2024-04-18 17:59:00,SystemResetWarning,0834.4,5.01,000.00,020.6,020.0,000.0,029.2,022.5,020.7,0000.0,0007.87,0005.93,0005.70
